Location: ????????
(55.6189°N, 38.3031°E)
Time: 12:48:56
(UTC+00:00)

SL-16 R/B - Pass Details

Date: 29 February 2020
Orbit: 843 x 847 km, 71.0° (Epoch: 05 April)

Event Time Altitude Azimuth Distance (km) Brightness Sun altitude
Exits shadow 22:21:15 13° 59° (ENE) 2,252 4.8 -41.2°
Drops below altitude 10° 22:22:03 10° 53° (NE) 2,475 5.1 -41.1°
Sets 22:24:58 0° 39° (NE) 3,415 6.1 -41.0°
